Regional Weather Roundup
Issued by NWS Lake Charles, LA

Home | Current Version | Previous Version | Text Only | Print | Product List | Glossary On
Versions: 1 2 3 4 5 6 7 8 9 10 11 12 13 14 15 16 17 18 19 20 21 22 23 24 25 26 27 28 29 30 31 32 33 34 35 36 37 38 39 40 41 42 43 44 45 46 47 48 49 50
000
ASUS44 KLCH 131110
RWRLCH
RWRLCH
REGIONAL WEATHER ROUNDUP
NATIONAL WEATHER SERVICE LAKE CHARLES LA
600 AM CDT SUN JUL 13 2014

Note: "fair" indicates few or no clouds below 12,000 feet with no
significant weather and/or obstructions to visibility.


ACROSS SOUTHEAST TEXAS

CITY           SKY/WX    TMP DP  RH WIND       PRES   REMARKS
BEAUMONT       FOG       75  73  93 NW3       30.06R VSB 1
BEAUMONT CITY    N/A     73  72  98 CALM      30.07R
ORANGE         SUNNY     73  73 100 CALM      30.08R
JASPER         CLEAR     70  68  95 CALM      30.10R
$$

ACROSS CENTRAL LOUISIANA

CITY           SKY/WX    TMP DP  RH WIND       PRES   REMARKS
LEESVILLE      CLEAR     73  71  93 CALM      30.07R
FULLERTON        N/A     73  70  90 CALM      30.05R
ALEXANDRIA INT CLEAR     71  70  96 CALM      30.05S FOG
ESLER FIELD    CLEAR     71  68  90 CALM      30.07R FOG
DERIDDER       PTSUNNY   73  71  93 CALM      30.09R
OAKDALE        MOSUNNY   68  67  96 CALM      30.07R
OPELOUSAS        N/A     72  72 100 CALM      30.07R
$$

ACROSS SOUTHWEST AND SOUTH CENTRAL LOUISIANA

CITY           SKY/WX    TMP DP  RH WIND       PRES   REMARKS
SULPHUR        SUNNY     74  73  99 CALM      30.08R FOG
LAKE CHARLES   CLEAR     74  72  93 CALM      30.07R
CHENNAULT INT  CLEAR     73  72  94 CALM      30.08R FOG
CAMERON PHI    SUNNY     75  75 100 N3        30.07S FOG
DEQUINCY         N/A     69  69  98 CALM      30.07R
JENNINGS         N/A     72  71  99 CALM      30.07R
LAFAYETTE      CLEAR     76  74  93 CALM      30.07R
NEW IBERIA     CLEAR     75  73  93 CALM      30.07R
ABBEVILLE      CLOUDY    75  74  97 CALM      30.06S
PATTERSON      PTCLDY    75  73  94 CALM      30.10R
SALT POINT       N/A     82  75  79 VRB5      30.05S
$$

SELECTED SITES ACROSS THE REGION

CITY           SKY/WX    TMP DP  RH WIND       PRES   REMARKS
HOUSTON BUSH   PTCLDY    78  74  87 CALM      30.07R
HOUSTON HOBBY  CLEAR     78  74  87 CALM      30.06R
GALVESTON      PTCLDY    81  77  88 W5        30.07R
COLLEGE STAT   CLEAR     76  72  87 CALM      30.08S
CONROE         CLEAR     77  73  87 W5        30.08S
HUNTSVILLE     CLEAR     76  72  87 SW5       30.08R
LUFKIN         CLEAR     76  72  87 CALM      30.08R
SHREVEPORT     CLEAR     74  72  93 CALM      30.07R
MONROE         FOG       73  73 100 CALM      30.07R VSB 1
NATCHEZ MS     CLEAR     73  70  88 S3        30.08R
BATON ROUGE    CLEAR     74  73  97 CALM      30.07R
N.O. INTL ARPT PTCLDY    77  73  87 CALM      30.05R
SLIDELL        CLEAR     73  70  90 CALM      30.06R
$$

MARINE REPORTS

STATION/POSITION TIME  TEMP    WIND        PRES    VSBY  WAVE
                       AIR SEA DIR/SP/G                  HT/PER
                 (UTC) (F)     (DEG/KT/KT) (MB)    (MI)  (FT/S)
BUOY 30 S HIGH I 1100   84 87  250/  6     1017.5R
SEA RIM ST PARK  1100   78     310/  2/  2 1018.7R
PORT ARTHUR      1100      88  240/  2/  3 1017.8R
SABINE PASS N    1100   81 88  300/  2/  4 1018.1R
TEXAS POINT      1100   81 88  310/  3/  4 1018.2R
CALCASIEU PASS   1100   80 86   80/  3/  3 1019.2R
LK CHARLES BEACH 1100   74 88              1019.0R
MARSH ISLAND     1000   82     170/  9/ 13   N/A
FRESH WATER LOCK 1100   75 88   40/  5/  5 1017.8F
AMERADA PASS     1100   81 84  280/  4/  5 1017.8F
$$



USA.gov is the U.S. government's official web portal to all federal, state and local government web resources and services.